• MPC Preparation (Info)

  • MPEC 2023-R133 : 2023 LV1

    The following Minor Planet Electronic Circular may be linked-to from your own Web pages, but must not otherwise be redistributed electronically.

    A form allowing access to any MPEC is at the bottom of this page.


    Read MPEC 2023-R132 Read MPEC 2023-R134


    M.P.E.C. 2023-R133                           Issued 2023 September 11, 14:07 UT
    
         The Minor Planet Electronic Circulars contain information on unusual
             minor planets, routine data on comets and natural satellites,
             and occasional editorial announcements.  They are published
        on behalf of Division F of the International Astronomical Union by the
              Minor Planet Center, Smithsonian Astrophysical Observatory,
                              Cambridge, MA 02138, U.S.A.
    			  
                 Prepared using the Tamkin Foundation Computer Network
    
                                  MPC@CFA.HARVARD.EDU
                URL https://www.minorplanetcenter.net/    ISSN 1523-6714
    
                                    2023 LV1                                 
    
    
                               Revision to MPEC 2023-M08                            
    
    Additional Observations:
         K23L01V  C2018 06 18.41299 22 08 10.91 -04 37 42.7          21.2 GVER133G96
         K23L01V  C2018 06 18.41824 22 08 10.01 -04 37 39.4                VER133G96
         K23L01V  C2018 06 19.43245 22 05 22.10 -04 24 27.2          21.3 GVER133G96
         K23L01V  C2018 06 19.43647 22 05 21.40 -04 24 24.9          22.2 GVER133G96
         K23L01V  C2018 06 20.41530 22 02 31.47 -04 11 41.4          21.4 GVER133I52
         K23L01V  C2018 06 20.42161 22 02 30.34 -04 11 36.5          21.2 GVER133I52
         K23L01V  C2018 06 20.42772 22 02 29.20 -04 11 31.7          21.2 GVER133I52
         K23L01V  C2018 06 20.43406 22 02 28.02 -04 11 26.4          21.1 GVER133I52
    
    Observer details:
    G96 Mt. Lemmon Survey.  Observer A. D. Grauer.  Measurers B. Gray, D. Rankin,
        F. C. Shelly.  1.5-m reflector + 10K CCD.
    I52 Steward Observatory, Mt. Lemmon Station.  Observer G. J. Leonard.
        Measurers B. Gray, D. Rankin, F. C. Shelly.  1.0-m reflector + CCD.
    
    First and last observations above in comparison with prediction:
    Residuals in seconds of arc (or two decimals in degrees), reference and Delta-T
    180618 G96 0.02- 0.04-    180620 I52 0.03- 0.05-    MPO745284   +0.05 days
    
    Orbital elements:
    2023 LV1                                            PHA, Earth MOID = 0.0328 AU
    Epoch 2023 Sept. 13.0 TT = JDT 2460200.5                Veres                   
    M 206.90386              (2000.0)            P               Q                  
    n   1.35847321     Peri.  205.85682     -0.48415602     -0.84896520             
    a   0.8074246      Node   273.75164     +0.83509414     -0.37609929             
    e   0.5998744      Incl.   12.25339     +0.26117183     -0.37122420             
    P   0.73           H   21.38          G   0.15           U   2                  
    Residuals in seconds of arc
    180618 G96  0.2-  0.8+    230616 W57  0.1+  0.4+    230628 M49  0.1-  0.1-
    180618 G96  0.4-  0.0     230617 M49  0.2-  0.0     230702 L34  0.6+  0.4+
    180619 G96  0.2+  0.1+    230617 M49  0.4-  0.0     230704 L34  0.2-  0.0
    180619 G96  0.4+  0.7-    230617 M49  0.3-  0.0     230704 L34  0.8-  0.6+
    180620 I52  0.5-  0.2-    230617 W57  0.1+  0.0     230706 M49  0.2-  0.3+
    180620 I52  0.2+  0.2-    230617 W57  0.1+  0.1+    230706 M49  0.3-  0.5-
    180620 I52  0.1+  0.1-    230617 W57  0.3+  0.0     230706 M49  0.4+  0.4+
    180620 I52  0.1+  0.2+    230617 M49  0.3-  0.2-    230706 L34  1.1+  0.5+
    230614 L87  2.7-  1.3-    230617 M49  0.1-  0.1-    230706 L34  0.2-  0.6-
    230614 L87  0.6-  0.4+    230617 M49  0.1-  0.2-    230706 L34  0.1-  0.7+
    230614 L87  0.4+  0.6+    230617 M49  0.3-  0.3-    230706 X89  0.0   0.3+
    230614 L87  0.8+  0.7+    230617 M49  0.1-  0.0     230707 X89  0.3+  0.1+
    230614 L87  1.2+  1.4+    230617 M49  0.2-  0.3+    230707 X89  0.2+  0.3+
    230615 L87  0.1-  0.2-    230620 X89  0.4-  0.3+    230707 291  0.3+  0.2+
    230615 L87  0.1-  0.2-    230620 X89  0.2-  0.3+    230707 291  0.2+  0.5+
    230615 L87  0.4-  0.5-    230620 X89  0.3-  0.3+    230707 291  0.6+  0.2+
    230615 474  0.0   0.0     230622 X33  0.4-  1.9+    230708 M49  0.0   0.1-
    230615 474  0.0   0.1-    230622 X33  2.9-  2.4+    230708 M49  0.0   0.1+
    230615 474  0.2+  0.1+    230622 X33  2.8-  1.2+    230708 M49  0.1+  0.2-
    230615 474  0.0   0.2-    230622 M49  0.3-  0.2-    230708 M49  0.1-  0.1+
    230616 L87  0.6-  0.6-    230622 M49  0.0   0.3+    230710 V00  0.1+  0.0
    230616 L87  0.1-  0.2-    230622 M49  0.2-  0.3+    230710 V00  0.0   0.0
    230616 L87  1.1-  0.7-    230624 M22  0.1+  0.0     230710 V00  0.0   0.0
    230616 L87  0.3-  0.0     230624 M22  0.0   0.1-    230710 V00  0.0   0.0
    230616 L87  0.5-  0.3-    230624 M22  0.1-  0.1+    230715 807  0.0   0.1+
    230616 L87  0.6-  0.3-    230625 G17  0.3-  0.2-    230715 807  0.0   0.2-
    230616 L87  0.3-  0.2-    230625 G17  0.2-  0.3+    230715 807  0.1+  0.8-
    230616 L87  0.5-  0.4-    230625 G17  0.3+  0.0     230721 T12  0.0   0.2+
    230616 L87  0.1+  0.3-    230628 M49  0.0   0.1+
    230616 W57  0.3+  0.5+    230628 M49  0.2-  0.0
    
    Ephemeris:
    2023 LV1                 a,e,i = 0.81, 0.60, 12                  q = 0.3231
    Date    TT    R. A. (2000) Decl.     Delta      r    Elong.  Phase     V
    2023 08 12    16 16 30.4 -11 21 45   0.5648  1.2838   105.3    49.6    22.5
    ...
    2023 08 27    16 34 36.2 -11 48 36   0.7126  1.2914    95.5    51.2    23.1
    ...
    2023 09 04    16 45 35.4 -12 07 25   0.7862  1.2856    90.6    51.7    23.3
    ...
    2023 09 10    16 54 21.0 -12 21 50   0.8383  1.2767    87.0    52.0    23.4
    2023 09 11    16 55 51.2 -12 24 12   0.8466  1.2749    86.5    52.0    23.5
    2023 09 12    16 57 22.0 -12 26 33   0.8549  1.2729    85.9    52.1    23.5
    ...
    2023 09 18    17 06 41.7 -12 40 13   0.9024  1.2589    82.4    52.3    23.6
    ...
    2023 09 26    17 19 44.5 -12 56 25   0.9594  1.2340    77.9    52.6    23.7
    ...
    2023 10 11    17 45 51.3 -13 17 32   1.0426  1.1676    69.7    53.4    23.8
    
    A. U. Tomatic                (C) Copyright 2023 MPC           M.P.E.C. 2023-R133
    


    Read MPEC 2023-R132 Read MPEC 2023-R134


    MPEC number:

    Enter an MPEC number in one of the following forms:

    • 1997-B01 (the full form)
    • J97B01 (the packed version of the full form)
    • B01 (the abbreviated form)